Notices

What's New in latest Release from April 7th, 2021:

- Updated Glossary, including Speed of Maximum Gust, and Total Hourly Precipitation

- Updated national and regional climate services offices contacts and prices information

- Addition of station inventory lists for 1981-2010, 1971-2000, and 1961-1990 Normals.

If you haven't already, please take our survey and provide feedback about our website: https://eccc.sondage-survey.ca/f/LanguageSelection.aspx?s=442ca660-fcf1-47c0-95a9-59707d6fd709

Hourly Data Report for January 17, 2021

SHEARWATER RCS
NOVA SCOTIA
Current Station Operator: ECCC - MSC

44°37'47.000" N
63°30'48.000" W
24.00 m
8205092
71264
AAW

Download Data

Hourly Data (January 2021)
Hourly Data Report for January 17, 2021
TIME
LST
Temp Definition
°C
Dew Point Definition
°C
Rel Hum Definition
%
Precip. Amount Definition
mm

Wind Dir Definition
10's deg

Wind Spd Definition
km/h
Visibility Definition
km
Stn Press Definition
kPa
Hmdx Definition


Wind Chill Definition


Weather Definition


00:00 4.2 3.5 95 3.5 9 33   99.22     LegendNANA
01:00 4.8 4.1 96 4.0 9 35   99.03     LegendNANA
02:00 5.5 5.0 96 2.6 11 16   99.06     LegendNANA
03:00 5.5 5.0 97 5.8 6 25   98.75     LegendNANA
04:00 6.5 6.0 97 3.4 7 25   98.41     LegendNANA
05:00 6.8 6.2 96 4.4 7 19   98.25     LegendNANA
06:00 6.2 5.7 96 6.3 21 5   98.26     LegendNANA
07:00 6.1 4.1 87 2.3 24 17   98.29     LegendNANA
08:00 5.4 2.9 84 0.4 24 22   98.31     LegendNANA
09:00 5.5 4.2 91 0.0 23 20   98.34     LegendNANA
10:00 6.2 3.7 84 0.0 22 25   98.46     LegendNANA
11:00 5.7 1.6 75 0.0 22 33   98.55     LegendNANA
12:00 5.4 0.9 73 0.0 21 38   98.51     LegendNANA
13:00 5.3 0.9 73 0.0 21 37   98.46     LegendNANA
14:00 5.4 1.5 76 0.0 22 31   98.51     LegendNANA
15:00 3.7 1.8 87 0.3 23 34   98.58     LegendNANA
16:00 3.4 1.3 86 0.2 24 26   98.69     LegendNANA
17:00 4.3 0.7 77 0.0 22 32   98.75     LegendNANA
18:00 4.0 0.7 79 0.0 22 36   98.84     LegendNANA
19:00 3.9 0.5 78 0.0 23 31   98.94     LegendNANA
20:00 3.5 0.8 82 0.0 23 23   99.01     LegendNANA
21:00 3.7 0.3 78 0.0 22 26   99.06     LegendNANA
22:00 3.7 0.2 78 0.0 22 21   99.12     LegendNANA
23:00 3.5 0.4 80 0.0 23 24   99.21     LegendNANA

Notes on Data Quality.

Legend

  • E = Estimated
  • M = Missing
  • NA = Not Available*
  • [empty] = Indicates an unobserved value
Date modified: